cover

Pleasurekraft - All Bite/No Bark (Original Mix)

Get it on iTunes StoreListen on Apple Music

Trackname / Key / BPM / Publish dateArtists, Remixers / Label
124 bpm, 8A / A minor, 2015-07-31, Techno,  1  59

Tracks in release Space Ibiza 2015 Beatport Exclusive - Mixed by Pleasurekraft, Technasia, Eli & Fur and Mark Brown

#Trackname / Key / BPM / Publish dateArtists, Remixers / Label
1 126 bpm, 3A / Bb minor, 2015-07-31, Techno,  1  59
2 124 bpm, 8A / A minor, 2015-07-31, Tech House,  0  59
3 125 bpm, 7B / F major, 2015-07-31, Techno,  0  59
4 124 bpm, 7B / F major, 2015-07-31, Techno,  3  59
5 124 bpm, 6B / Bb major, 2015-07-31, Techno,  14  59
6 124 bpm, 8A / A minor, 2015-07-31, Techno,  3  59
7 124 bpm, 8A / A minor, 2015-07-31, Techno,  1  59
8 125 bpm, 11B / A major, 2015-07-31, Techno,  3  59
9 124 bpm, 2B / F# major, 2015-07-31, Techno,  1  59
10 121 bpm, 8B / C major, 2015-07-31, Techno,  1  59
11 124 bpm, 3A / Bb minor, 2015-07-31, Techno,  1  59
12 130 bpm, 3A / Bb minor, 2015-07-31, Progressive House,  0  59
13 123 bpm, 3A / Bb minor, 2015-07-31, Deep House,  1  59
14 121 bpm, 11A / F# minor, 2015-07-31, Techno,  1  59
15 123 bpm, 1B / B major, 2015-07-31, Techno,  0  59
16 125 bpm, 11B / A major, 2015-07-31, Techno,  1  59
17 124 bpm, 8A / A minor, 2015-07-31, Techno,  0  59
18 124 bpm, 8A / A minor, 2015-07-31, Tech House,  1  59
19 123 bpm, 10A / B minor, 2015-07-31, Tech House,  4  59
20 120 bpm, 8A / A minor, 2015-07-31, Techno,  0  59
21 126 bpm, 6B / Bb major, 2015-07-31, Tech House,  1  59
22 123 bpm, 11B / A major, 2015-07-31, Deep House,  1  59
23 123 bpm, 8A / A minor, 2015-07-31, Techno,  1  59
24 132 bpm, 6A / G minor, 2015-07-31, Techno,  0  59
25 122 bpm, 11A / F# minor, 2015-07-31, Techno,  0  59
26 123 bpm, 10B / D major, 2015-07-31, Tech House,  1  59
27 126 bpm, 12A / Db minor, 2015-07-31, Tech House,  2  59
28 127 bpm, 7B / F major, 2015-07-31, House,  0  59
29 124 bpm, 10B / D major, 2015-07-31, Minimal,  0  59
30 124 bpm, 7A / D minor, 2015-07-31, Tech House,  2  59
31 120 bpm, 6A / G minor, 2015-07-31, Deep House,  0  59
32 122 bpm, 7A / D minor, 2015-07-31, Techno,  0  59
33 122 bpm, 7A / D minor, 2015-07-31, Minimal,  0  59
34 120 bpm, 9A / E minor, 2015-07-31, Deep House,  2  59
35 123 bpm, 3A / Bb minor, 2015-07-31, Deep House,  1  59
36 124 bpm, 6A / G minor, 2015-07-31, Tech House,  0  59
37 124 bpm, 7B / F major, 2015-07-31, Deep House,  0  59
38 125 bpm, 10A / B minor, 2015-07-31, Tech House,  0  59
39 122 bpm, 9A / E minor, 2015-07-31, Deep House,  0  59
40 120 bpm, 10B / D major, 2015-07-31, Deep House,  0  59
41 120 bpm, 7A / D minor, 2015-07-31, Deep House,  0  59
42 126 bpm, 8A / A minor, 2015-07-31, Tech House,  3  59
43 124 bpm, 2A / Eb minor, 2015-07-31, House,  0  59
44 123 bpm, 5B / Eb major, 2015-07-31, Tech House,  0  59
45 123 bpm, 3A / Bb minor, 2015-07-31, House,  0  59
46 124 bpm, 5B / Eb major, 2015-07-31, Tech House,  4  59
47 125 bpm, 6A / G minor, 2015-07-31, Tech House,  1  59
48 124 bpm, 12A / Db minor, 2015-07-31, Tech House,  5  59
49 125 bpm, 10B / D major, 2015-07-31, House,  0  59
50 124 bpm, 7A / D minor, 2015-07-31, House,  0  59
51 127 bpm, 2A / Eb minor, 2015-07-31, Techno,  3  59
52 122 bpm, 3A / Bb minor, 2015-07-31, Deep House,  0  59
53 124 bpm, 3A / Bb minor, 2015-07-31, Tech House,  0  59
54 122 bpm, 6A / G minor, 2015-07-31, Tech House,  3  59
55 124 bpm, 7A / D minor, 2015-07-31, House,  2  59
56 123 bpm, 7B / F major, 2015-07-31, Techno,  0  59
57 126 bpm, 8A / A minor, 2015-07-31, Techno,  0  59
58 124 bpm, 7A / D minor, 2015-07-31, House,  0  59
59 124 bpm, 6B / Bb major, 2015-07-31, House,  0  59

Recommendations

#Trackname / Key / BPM / Publish dateArtists, Remixers / Label
1 115 bpm, 8B / C major, 2015-09-25, Drum & Bass,  10  1   4
2 86 bpm, 7B / F major, 2015-08-31, Drum & Bass,  9  1   4
3 113 bpm, 3A / Bb minor, 2015-09-25, Drum & Bass,  7  1   4
4 170 bpm, 3A / Bb minor, 2015-10-16, Drum & Bass,  6  1   3
5 87 bpm, 10A / B minor, 2015-10-02, Drum & Bass,  5  1   12
6 85 bpm, 8A / A minor, 2015-09-28, Drum & Bass,  4  1   4
7 83 bpm, 8A / A minor, 2015-10-02, Drum & Bass,  2  1   12
8 88 bpm, 7B / F major, 2015-10-19, Drum & Bass,  2  1   4
9 86 bpm, 2A / Eb minor, 2015-10-16, Drum & Bass,  1  1   3

Charts

ArtistTitleGenresPublish date
EneiEnei - Top 10 Chart - October 2015Drum & Bass, Techno 2015-10-27
×

Sign in

Sign in to access your personalized pages, follow artists and labels you love, and create playlists fromyour favorite tracks.

Please wait...